Weather History for Marion, VA

Change the Weather History Date:

Friday, January 25, 2013

  Actual Average (KGEV) Record (KGEV)
Temperature  
Mean Temperature 24 °F -  
Max Temperature 32 °F 45 °F 66 °F (1967)
Min Temperature 17 °F 26 °F 9 °F (2014)
Degree Days  
Heating Degree Days 40    
Moisture  
Dew Point 18 °F    
Average Humidity 82    
Maximum Humidity 100    
Minimum Humidity 47    
Precipitation  
Precipitation 0.01 in - - ()
Sea Level Pressure  
Sea Level Pressure 30.13 in    
Wind  
Wind Speed 11 mph (NE)    
Max Wind Speed 32 mph    
Max Gust Speed 37 mph    
Visibility 5 miles    
Events Fog , Snow    
Averages and records for this station are not official NWS values.
T = Trace of Precipitation, MM = Missing Value Source: NWS Daily Summary

Daily Weather History Graph

Daily Weather History Graph

Search for Another Location

Airport:

Trip Planner

Search our weather history database for the weather conditions in past years. The results will help you decide how hot, cold, wet, or windy it might be!

Date:

Astronomy

Jan. 25, 2013 Rise Set
Actual Time 7:32 AM EST 5:43 PM EST
Civil Twilight 7:04 AM EST 6:11 PM EST
Nautical Twilight 6:33 AM EST 6:42 PM EST
Astronomical Twilight 6:02 AM EST 7:13 PM EST
Moon 4:39 PM EST (1/25) 6:11 AM EST (1/25)
Length of Visible Light 11h 06m
Length of Day
10h 10m
Waxing Gibbous, 98% of the Moon is Illuminated
Jan 25
Waxing Gibbous
Jan 26
Full
Feb 3
Last Quarter
Feb 10
New
Feb 17
First Quarter

Hourly Weather History & Observations

Time (EST) Temp. Windchill Dew Point Humidity Pressure Visibility Wind Dir Wind Speed Gust Speed Precip Events Conditions
12:15 AM 17.2 °F 10.2 °F 7.5 °F 66% 30.36 in 10.0 mi ENE 4.6 mph - N/A   Clear
12:35 AM 17.1 °F 8.7 °F 7.5 °F 66% 30.35 in 10.0 mi East 5.8 mph - N/A   Clear
12:55 AM 17.4 °F 7.1 °F 7.7 °F 66% 30.35 in 10.0 mi ENE 8.1 mph - N/A   Clear
1:15 AM 17.6 °F 8.2 °F 7.3 °F 64% 30.34 in 10.0 mi East 6.9 mph - N/A   Clear
1:35 AM 17.6 °F 6.4 °F 6.8 °F 63% 30.34 in 10.0 mi ENE 9.2 mph - N/A   Clear
1:55 AM 17.6 °F 4.3 °F 6.8 °F 63% 30.34 in 10.0 mi ENE 12.7 mph - N/A   Clear
2:15 AM 17.8 °F 7.5 °F 7.5 °F 64% 30.34 in 10.0 mi ENE 8.1 mph - N/A   Clear
2:35 AM 17.6 °F 7.3 °F 8.6 °F 68% 30.32 in 10.0 mi ENE 8.1 mph - N/A   Clear
2:55 AM 17.6 °F 5.0 °F 7.9 °F 66% 30.32 in 10.0 mi NE 11.5 mph - N/A   Clear
3:15 AM 17.6 °F 4.3 °F 8.4 °F 67% 30.29 in 10.0 mi ENE 12.7 mph - N/A   Clear
3:35 AM 17.4 °F 5.4 °F 8.2 °F 67% 30.30 in 10.0 mi ENE 10.4 mph - N/A   Clear
3:55 AM 17.6 °F 5.0 °F 7.9 °F 66% 30.29 in 10.0 mi ENE 11.5 mph - N/A   Clear
4:15 AM 18.0 °F 5.4 °F 8.2 °F 66% 30.29 in 10.0 mi ENE 11.5 mph - N/A   Clear
4:35 AM 18.3 °F 7.3 °F 7.7 °F 63% 30.28 in 10.0 mi NNE 9.2 mph - N/A   Clear
4:55 AM 18.9 °F 8.0 °F 8.4 °F 64% 30.28 in 10.0 mi ENE 9.2 mph - N/A   Clear
5:15 AM 19.4 °F 8.6 °F 7.7 °F 60% 30.27 in 10.0 mi NE 9.2 mph - N/A   Clear
5:35 AM 19.9 °F 10.1 °F 7.2 °F 58% 30.28 in 10.0 mi ENE 8.1 mph - N/A   Scattered Clouds
5:55 AM 20.8 °F 11.2 °F 6.3 °F 53% 30.26 in 10.0 mi East 8.1 mph - N/A   Mostly Cloudy
6:15 AM 21.2 °F 12.6 °F 5.0 °F 50% 30.25 in 10.0 mi East 6.9 mph - N/A   Mostly Cloudy
6:35 AM 21.2 °F 10.9 °F 5.4 °F 51% 30.24 in 10.0 mi East 9.2 mph - N/A   Overcast
6:55 AM 21.7 °F 10.8 °F 4.8 °F 48% 30.23 in 10.0 mi East 10.4 mph - N/A   Overcast
7:15 AM 21.9 °F 12.5 °F 4.5 °F 47% 30.24 in 10.0 mi East 8.1 mph - N/A   Overcast
7:35 AM 22.1 °F 12.8 °F 5.7 °F 49% 30.23 in 10.0 mi ENE 8.1 mph - N/A   Overcast
7:55 AM 22.1 °F 12.8 °F 6.3 °F 51% 30.23 in 10.0 mi East 8.1 mph - N/A   Overcast
8:35 AM 22.3 °F 13.0 °F 6.6 °F 51% 30.21 in 10.0 mi East 8.1 mph - N/A   Overcast
8:55 AM 22.1 °F 13.7 °F 8.2 °F 55% 30.21 in 10.0 mi ESE 6.9 mph - N/A   Overcast
9:15 AM 21.0 °F 10.6 °F 14.4 °F 75% 30.21 in 2.5 mi East 9.2 mph - N/A Snow Light Snow
9:35 AM 20.3 °F 9.0 °F 15.6 °F 82% 30.20 in 0.8 mi East 10.4 mph - N/A Snow Light Snow
9:55 AM 20.3 °F 9.8 °F 16.5 °F 85% 30.19 in 0.2 mi ENE 9.2 mph - N/A Snow Snow
10:15 AM 20.3 °F 9.0 °F 16.7 °F 86% 30.18 in 1.8 mi East 10.4 mph - N/A Snow Light Snow
10:35 AM 20.8 °F 9.7 °F 16.5 °F 83% 30.17 in 4.0 mi East 10.4 mph - N/A Snow Light Snow
10:55 AM 21.4 °F 9.7 °F 16.0 °F 80% 30.16 in 7.0 mi East 11.5 mph - N/A   Overcast
11:15 AM 21.2 °F 10.9 °F 16.7 °F 83% 30.14 in 1.8 mi East 9.2 mph - N/A Snow Light Snow
11:35 AM 21.2 °F 9.5 °F 17.2 °F 85% 30.11 in 1.2 mi East 11.5 mph - N/A Snow Light Snow
11:55 AM 21.0 °F 9.9 °F 17.4 °F 86% 30.11 in 1.2 mi East 10.4 mph - N/A Snow Light Snow
12:15 PM 21.6 °F 12.1 °F 18.3 °F 87% 30.09 in 2.0 mi ENE 8.1 mph - N/A Snow Light Snow
12:35 PM 21.7 °F 10.8 °F 18.3 °F 87% 30.07 in 0.2 mi ENE 10.4 mph - N/A Snow Light Snow
12:55 PM 21.9 °F 11.0 °F 18.5 °F 87% 30.06 in 3.0 mi NE 10.4 mph - N/A Snow Light Snow
1:15 PM 21.7 °F 13.2 °F 18.5 °F 87% 30.06 in 2.5 mi NE 6.9 mph - N/A Snow Light Snow
1:35 PM 21.7 °F 11.5 °F 18.5 °F 87% 30.05 in 1.8 mi NE 9.2 mph - N/A Snow Light Snow
1:55 PM 21.7 °F 13.2 °F 18.3 °F 87% 30.05 in 2.5 mi NE 6.9 mph - N/A Snow Light Snow
2:15 PM 22.1 °F 14.7 °F 18.9 °F 87% 30.04 in 2.0 mi NNE 5.8 mph - N/A Snow Light Snow
2:35 PM 22.1 °F 15.9 °F 19.4 °F 89% 30.04 in 4.0 mi NNE 4.6 mph - N/A   Overcast
2:55 PM 22.6 °F - 20.8 °F 93% 30.03 in 2.5 mi Calm Calm - N/A   Overcast
3:15 PM 23.0 °F - 22.8 °F 99% 30.03 in 1.5 mi Calm Calm - N/A   Overcast
3:35 PM 23.4 °F - 23.4 °F 100% 30.02 in 1.2 mi Calm Calm - N/A   Overcast
3:55 PM 24.3 °F 16.3 °F 24.3 °F 100% 30.01 in 1.8 mi WSW 6.9 mph - N/A   Overcast
4:15 PM 24.6 °F 14.4 °F 24.6 °F 100% 30.00 in 2.0 mi West 10.4 mph - N/A   Overcast
4:35 PM 25.3 °F 14.7 °F 25.3 °F 100% 30.00 in 2.0 mi WSW 11.5 mph - N/A   Overcast
4:55 PM 26.2 °F 14.7 °F 26.2 °F 100% 30.00 in 2.0 mi WSW 13.8 mph - N/A   Overcast
5:15 PM 28.2 °F 15.9 °F 28.2 °F 100% 30.01 in 1.8 mi West 17.3 mph - N/A   Overcast
5:35 PM 27.9 °F 15.5 °F 27.9 °F 100% 29.99 in 1.5 mi WSW 17.3 mph - N/A   Overcast
5:55 PM 28.2 °F 15.5 °F 28.2 °F 100% 29.99 in 1.8 mi West 18.4 mph 24.2 mph N/A   Overcast
6:15 PM 29.7 °F 16.1 °F 29.7 °F 100% 30.00 in 4.0 mi West 23.0 mph 26.5 mph N/A   Overcast
6:35 PM 30.7 °F 17.8 °F 30.7 °F 100% 30.00 in 5.0 mi West 21.9 mph 25.3 mph N/A   Overcast
6:55 PM 31.1 °F 18.0 °F 31.1 °F 100% 30.00 in 3.0 mi West 23.0 mph 31.1 mph N/A   Overcast
7:15 PM 31.6 °F 18.4 °F 31.6 °F 100% 30.00 in 1.8 mi West 24.2 mph 31.1 mph N/A   Overcast
7:35 PM 32.0 °F 18.9 °F 32.0 °F 100% 30.00 in 1.2 mi West 24.2 mph 29.9 mph N/A   Overcast
7:55 PM 32.0 °F 18.4 °F 32.0 °F 100% 29.99 in 0.8 mi West 26.5 mph 33.4 mph N/A   Overcast
8:15 PM 32.0 °F 17.2 °F 32.0 °F 100% 29.99 in 0.5 mi West 32.2 mph 36.8 mph N/A Fog Fog
8:35 PM 32.0 °F 18.4 °F 32.0 °F 100% 29.99 in 0.5 mi West 26.5 mph 34.5 mph 0.01 in Fog Fog
8:55 PM 32.0 °F 18.1 °F 32.0 °F 100% 30.00 in 0.5 mi WSW 27.6 mph 36.8 mph 0.01 in Fog Fog
9:15 PM 32.0 °F 18.1 °F 32.0 °F 100% 30.00 in 0.2 mi West 27.6 mph 36.8 mph N/A Fog Fog
9:35 PM 32.2 °F 18.9 °F 32.2 °F 100% 30.00 in 0.5 mi West 25.3 mph 33.4 mph N/A Fog Fog
9:55 PM 32.2 °F 18.1 °F 32.2 °F 100% 30.00 in 0.2 mi West 28.8 mph 35.7 mph N/A Fog Fog
10:15 PM 32.4 °F 18.6 °F 32.4 °F 100% 30.00 in 0.2 mi West 27.6 mph 34.5 mph N/A Fog Fog
10:35 PM 32.4 °F 19.1 °F 32.4 °F 100% 30.00 in 0.5 mi West 25.3 mph 32.2 mph N/A Fog Fog
10:55 PM 32.4 °F 19.4 °F 32.4 °F 100% 30.00 in 0.5 mi West 24.2 mph 31.1 mph N/A Fog Fog
11:15 PM 32.5 °F 19.4 °F 32.5 °F 100% 30.00 in 0.8 mi WSW 25.3 mph 32.2 mph N/A   Overcast
11:35 PM 32.7 °F 19.9 °F 32.7 °F 100% 30.01 in 0.8 mi West 24.2 mph 31.1 mph N/A   Overcast
11:55 PM 32.9 °F 19.6 °F 32.9 °F 100% 30.01 in 0.8 mi West 26.5 mph 31.1 mph N/A   Overcast